This is the latest recevied weather packets stored in our database for station/object OE5HCE. If no packets are shown the sender has not sent any weather packets the latest 10 day(s).
| Time | Temp. | Humidity | Pressure | Rain* | Wind** | Luminosity | Snow |
|---|---|---|---|---|---|---|---|
| 1787843756 | 29.44° C | 53% | 1014.5 hPa | 0 mm | - | 294 W/m² | - |
| 1787842860 | 29.44° C | 52% | 1014.6 hPa | 0 mm | - | 378 W/m² | - |
| 1787841954 | 29.44° C | 53% | 1014.6 hPa | 0 mm | - | 383 W/m² | - |
| 1787841056 | 30° C | 51% | 1014.5 hPa | 0 mm | - | 341 W/m² | - |
| 1787840156 | 30.56° C | 52% | 1014.6 hPa | 0 mm | - | 464 W/m² | - |
| 1787839249 | 28.89° C | 54% | 1014.7 hPa | 0 mm | - | 482 W/m² | - |
| 1787838347 | 28.89° C | 54% | 1014.7 hPa | 0 mm | - | 531 W/m² | - |
| 1787837457 | 29.44° C | 54% | 1014.7 hPa | 0 mm | - | 547 W/m² | - |
| 1787836544 | 28.89° C | 55% | 1014.7 hPa | 0 mm | - | 482 W/m² | - |
| 1787835642 | 28.33° C | 56% | 1014.9 hPa | 0 mm | - | 610 W/m² | - |
| 1787834739 | 28.33° C | 56% | 1014.9 hPa | 0 mm | - | 499 W/m² | - |
| 1787833838 | 27.78° C | 58% | 1015.2 hPa | 0 mm | - | 513 W/m² | - |
| 1787832935 | 27.22° C | 59% | 1015.3 hPa | 0 mm | - | 626 W/m² | - |
| 1787832033 | 27.22° C | 59% | 1015.4 hPa | 0 mm | - | 592 W/m² | - |
| 1787831155 | 26.67° C | 59% | 1015.7 hPa | 0 mm | - | 425 W/m² | - |
| 1787830228 | 26.67° C | 61% | 1015.7 hPa | 0 mm | - | 814 W/m² | - |
| 1787829327 | 26.11° C | 63% | 1015.8 hPa | 0 mm | - | 591 W/m² | - |
| 1787828423 | 25.56° C | 63% | 1016.1 hPa | 0 mm | - | 369 W/m² | - |
| 1787827523 | 25° C | 64% | 1016.3 hPa | 0 mm | - | 656 W/m² | - |
| 1787826616 | 25° C | 63% | 1016.3 hPa | 0 mm | - | 272 W/m² | - |
| 1787825714 | 24.44° C | 65% | 1016.1 hPa | 0 mm | - | 599 W/m² | - |
| 1787824810 | 23.89° C | 67% | 1016.1 hPa | 0 mm | - | 582 W/m² | - |
| 1787823905 | 23.33° C | 67% | 1016.2 hPa | 0 mm | - | 492 W/m² | - |
| 1787823010 | 23.33° C | 68% | 1016.4 hPa | 0 mm | - | 615 W/m² | - |
| 1787822160 | 22.78° C | 69% | 1016.3 hPa | 0 mm | - | 585 W/m² | - |
* Rain latest hour (hover to see other rain measurements)
** Current wind speed in m/s (hover to see current wind gust speed)